[[{"header":{"parameterUnit":"m.s-1","parameterCategory":1,"la1":30.2991,"la2":30.254,"lo1":-89.0895,"lo2":-89.0444,"dy":0.0017,"dx":0.0017,"nx":28,"ny":28,"refTime":"2025-02-10T03:00:00:Z","depth":0,"parameterNumber":2,"parameterNumberName":"U-component_of_WINDS"},"data":[0,0,0,0,0,0,0,0,0,0,0,0,0,0,0,0,0,0,0,0,0,0,0,0,0,0,0,0,0,0,0,0,0,0,0,0,0,0,0,0,0,0,0,0,0,0,0,0,0,0,0,0,0,0,0,0,0,0,-1.155,-1.1551,0,-1.1611,-1.1611,-1.1612,-1.1647,-1.1647,-1.1647,-1.1647,-1.1711,-1.1713,-1.1715,0,0,0,0,0,0,0,0,0,0,0,0,0,-1.1466,-1.1467,-1.155,-1.1551,-1.1552,-1.1611,-1.1611,-1.1612,-1.1647,-1.1647,-1.1647,-1.1647,-1.1711,-1.1713,-1.1715,0,0,0,0,0,0,0,0,0,0,0,0,0,-1.1512,-1.1468,-1.155,-1.1576,-1.1579,-1.161,-1.1612,-1.1613,-1.1647,-1.1647,-1.1647,-1.1647,-1.171,-1.1713,-1.1715,-1.1727,0,0,-1.1722,-1.1723,0,0,0,0,0,0,0,0,-1.151,-1.1515,-1.1571,-1.1574,-1.1577,-1.1621,-1.1606,-1.1651,-1.1646,-1.1621,-1.1647,-1.1647,-1.1681,-1.1686,-1.1697,-1.173,-1.1732,-1.1723,-1.1724,-1.1725,-1.1726,0,0,0,0,0,0,0,-1.1506,-1.1513,-1.1574,-1.1572,-1.1576,-1.1585,-1.1592,-1.1614,-1.165,-1.1623,-1.1626,-1.1632,-1.1683,-1.1695,-1.1699,-1.1733,-1.1722,-1.1725,-1.1726,-1.1727,-1.1778,-1.1778,0,0,0,0,0,0,-1.1499,-1.151,-1.1572,-1.1576,-1.1543,-1.1586,-1.1594,-1.1607,-1.1649,-1.1656,-1.1632,-1.1634,-1.1691,-1.1696,-1.1701,-1.1718,-1.1725,-1.1727,-1.1729,-1.1778,-1.1778,-1.1778,0,0,0,0,0,0,-1.1497,-1.1504,-1.157,-1.1544,-1.1553,-1.1588,-1.1602,-1.1608,-1.162,-1.1656,-1.1663,-1.1637,-1.1691,-1.1698,-1.172,-1.172,-1.1728,-1.1731,-1.1779,-1.1778,-1.1778,-1.175,0,0,0,0,0,0,-1.1494,-1.1503,-1.1507,-1.1543,-1.1554,-1.1586,-1.1602,-1.1609,-1.1624,-1.1626,-1.1663,-1.1669,-1.1692,-1.1716,-1.1722,-1.1724,-1.1732,-1.1779,-1.1778,-1.1778,-1.1751,-1.1749,-1.1747,0,0,0,0,0,-1.1491,-1.1497,-1.1507,-1.1515,-1.156,-1.1586,-1.1592,-1.1618,-1.1624,-1.1628,-1.1652,-1.1668,-1.1719,-1.1718,-1.1725,-1.1728,-1.1779,-1.1779,-1.1778,-1.1752,-1.175,-1.1747,0,0,0,0,0,0,-1.1461,-1.1503,-1.1514,-1.1532,-1.1555,-1.1592,-1.1599,-1.1614,-1.1637,-1.1638,-1.1669,-1.1677,-1.1696,-1.1714,-1.1712,-1.1741,-1.1751,-1.1752,-1.1729,-1.1726,-1.1724,-1.172,-1.1735,0,0,0,0,0,-1.1457,-1.1474,-1.151,-1.1522,-1.1533,-1.1564,-1.1576,-1.1594,-1.1619,-1.1629,-1.1654,-1.1679,-1.1701,-1.1715,-1.1737,-1.1754,-1.1763,-1.176,-1.1758,-1.1756,-1.1756,-1.1767,-1.1766,-1.1778,-1.1778,-1.1778,0,0,-1.1448,-1.1472,-1.1482,-1.1517,-1.1537,-1.1554,-1.1572,-1.159,-1.1604,-1.1633,-1.1654,-1.1674,-1.1704,-1.1723,-1.1733,-1.1739,-1.1755,-1.1756,-1.1754,-1.1756,-1.1767,-1.1765,-1.1764,-1.1777,-1.1777,-1.1778,0,0,-1.144,-1.146,-1.1473,-1.1492,-1.1522,-1.1543,-1.1546,-1.158,-1.1594,-1.1616,-1.1638,-1.1655,-1.1692,-1.1712,-1.1727,-1.1727,-1.1743,-1.1734,-1.1723,-1.1733,-1.1732,-1.1732,-1.1731,-1.1731,-1.1734,-1.1734,-1.1734,0,-1.1425,-1.1452,-1.1478,-1.1494,-1.1509,-1.1535,-1.1549,-1.1567,-1.1602,-1.1612,-1.1618,-1.1665,-1.1687,-1.1712,-1.1711,-1.1723,-1.1728,-1.1729,-1.173,-1.173,-1.173,-1.173,-1.173,-1.1733,-1.1733,-1.1733,-1.1733,0,-1.1432,-1.145,-1.1457,-1.149,-1.1506,-1.1521,-1.1549,-1.1563,-1.1578,-1.1598,-1.1621,-1.1648,-1.1676,-1.1683,-1.17,-1.171,-1.1713,-1.1724,-1.1734,-1.1727,-1.1727,-1.1728,-1.1731,-1.1731,-1.1732,-1.1732,0,0,-1.1407,-1.1454,-1.1456,-1.1471,-1.1506,-1.1521,-1.1537,-1.1563,-1.1574,-1.1598,-1.1613,-1.1643,-1.1654,-1.1671,-1.169,-1.1698,-1.1696,-1.1708,-1.171,-1.1705,-1.171,-1.1701,-1.17,-1.1707,-1.1707,-1.1707,-1.1707,0,-1.1405,-1.1434,-1.1458,-1.1479,-1.1496,-1.1521,-1.1535,-1.1558,-1.1577,-1.1596,-1.1617,-1.1638,-1.1651,-1.1661,-1.1671,-1.1694,-1.1698,-1.1695,-1.1721,-1.1722,-1.1713,-1.1701,-1.1692,-1.169,-1.1708,-1.1708,-1.1708,0,-1.1405,-1.1427,-1.1449,-1.1482,-1.149,-1.1502,-1.1528,-1.1545,-1.1572,-1.1586,-1.1604,-1.1624,-1.1643,-1.1651,-1.1678,-1.1676,-1.1688,-1.1702,-1.1702,-1.1705,-1.1714,-1.1704,-1.169,-1.169,-1.1709,-1.1708,-1.1708,0,-1.1384,-1.142,-1.1437,-1.1449,-1.1488,-1.1496,-1.1513,-1.154,-1.1554,-1.1577,-1.1587,-1.1612,-1.1626,-1.1646,-1.1672,-1.1676,-1.1696,-1.1707,-1.1708,-1.1707,-1.1711,-1.171,-1.1699,-1.172,-1.172,-1.172,-1.172,0,-1.1379,-1.1391,-1.1428,-1.1439,-1.1454,-1.1482,-1.1496,-1.1515,-1.1539,-1.1554,-1.1578,-1.1592,-1.1626,-1.1644,-1.1665,-1.1684,-1.1691,-1.1702,-1.1708,-1.17,-1.1698,-1.1708,-1.1709,-1.172,-1.172,-1.172,-1.172,0,-1.1358,-1.1383,-1.1404,-1.1438,-1.1447,-1.1457,-1.1487,-1.1499,-1.1519,-1.1539,-1.1545,-1.1577,-1.16,-1.1628,-1.1661,-1.1674,-1.1692,-1.17,-1.1682,-1.1685,-1.1684,-1.1684,-1.1679,-1.168,-1.17,-1.1699,-1.1699,0,-1.1352,-1.1362,-1.1397,-1.1409,-1.1424,-1.1443,-1.1457,-1.1485,-1.15,-1.1531,-1.1539,-1.1564,-1.1585,-1.1621,-1.1648,-1.1673,-1.1682,-1.1678,-1.1685,-1.1677,-1.1681,-1.168,-1.1681,-1.1676,-1.1676,-1.1675,-1.1675,0,-1.1339,-1.1351,-1.1371,-1.1394,-1.1411,-1.1431,-1.1452,-1.1461,-1.1493,-1.1508,-1.1531,-1.1548,-1.158,-1.1605,-1.1633,-1.1651,-1.1669,-1.1673,-1.1674,-1.1666,-1.1655,-1.1661,-1.1676,-1.1673,-1.1673,-1.1673,-1.1673,-1.1673,-1.1326,-1.1336,-1.1362,-1.1383,-1.1401,-1.1421,-1.1433,-1.1455,-1.1475,-1.1503,-1.1518,-1.1541,-1.1568,-1.1608,-1.1626,-1.1645,-1.1651,-1.1653,-1.1654,-1.1654,-1.1651,-1.1652,-1.165,-1.165,-1.165,-1.165,-1.165,0,-1.1314,-1.1332,-1.1351,-1.1379,-1.1396,-1.141,-1.1434,-1.1447,-1.1467,-1.149,-1.151,-1.1537,-1.1561,-1.159,-1.1615,-1.1625,-1.1634,-1.1631,-1.163,-1.1634,-1.1644,-1.164,-1.1623,-1.1623,-1.1623,-1.1623,-1.1623,-1.1623,-1.131,-1.1327,-1.1342,-1.1369,-1.1387,-1.1409,-1.1422,-1.144,-1.1459,-1.1487,-1.1507,-1.1525,-1.1551,-1.1578,-1.1601,-1.1609,-1.1617,-1.1612,-1.1622,-1.1631,-1.1634,-1.1636,-1.1632,-1.1614,-1.1614,-1.1611,-1.1611,-1.1611]},{"header":{"parameterUnit":"m.s-1","parameterCategory":1,"la1":30.2991,"la2":30.254,"lo1":-89.0895,"lo2":-89.0444,"dy":0.0017,"dx":0.0017,"nx":28,"ny":28,"refTime":"2025-02-10T03:00:00:Z","depth":0,"parameterNumber":3,"parameterNumberName":"V-component_of_WINDS"},"data":[0,0,0,0,0,0,0,0,0,0,0,0,0,0,0,0,0,0,0,0,0,0,0,0,0,0,0,0,0,0,0,0,0,0,0,0,0,0,0,0,0,0,0,0,0,0,0,0,0,0,0,0,0,0,0,0,0,0,4.0939,4.0939,0,4.0919,4.0919,4.0919,4.0889,4.0888,4.0888,4.0887,4.0864,4.0864,4.0864,0,0,0,0,0,0,0,0,0,0,0,0,0,4.0949,4.0949,4.0939,4.0939,4.0938,4.0919,4.0919,4.0919,4.0889,4.0888,4.0887,4.0887,4.0864,4.0864,4.0864,0,0,0,0,0,0,0,0,0,0,0,0,0,4.0939,4.0949,4.0939,4.0921,4.0919,4.0919,4.0919,4.0918,4.0889,4.0888,4.0887,4.0886,4.0864,4.0864,4.0864,4.0878,0,0,4.0863,4.0863,0,0,0,0,0,0,0,0,4.0939,4.0938,4.0924,4.0922,4.092,4.0906,4.0914,4.0905,4.0889,4.09,4.0887,4.0886,4.0878,4.0877,4.0875,4.0877,4.0876,4.0863,4.0863,4.0863,4.0863,0,0,0,0,0,0,0,4.094,4.0939,4.0931,4.0924,4.0922,4.0914,4.0911,4.0912,4.0894,4.0899,4.0897,4.0895,4.0877,4.0875,4.0874,4.0876,4.0863,4.0863,4.0863,4.0863,4.0893,4.0893,0,0,0,0,0,0,4.0944,4.094,4.0931,4.093,4.0928,4.0914,4.0912,4.0911,4.0894,4.089,4.0896,4.0894,4.0876,4.0874,4.0873,4.0892,4.0863,4.0863,4.0863,4.0892,4.0893,4.0894,0,0,0,0,0,0,4.0944,4.0943,4.0932,4.0935,4.0933,4.0915,4.0915,4.0911,4.0909,4.0891,4.0888,4.0897,4.0875,4.0873,4.0878,4.089,4.0863,4.0863,4.0891,4.0892,4.0893,4.0927,0,0,0,0,0,0,4.0945,4.0944,4.0949,4.0935,4.0933,4.0938,4.0915,4.0911,4.0909,4.0906,4.0892,4.0889,4.0874,4.0879,4.0878,4.0889,4.0862,4.0889,4.0891,4.0893,4.0925,4.0929,4.0933,0,0,0,0,0,4.0945,4.0958,4.095,4.0949,4.0939,4.0939,4.0937,4.0922,4.091,4.0916,4.0905,4.0889,4.0889,4.0879,4.0878,4.089,4.0889,4.0891,4.0893,4.0923,4.0928,4.0933,0,0,0,0,0,0,4.0972,4.0956,4.0946,4.0955,4.0949,4.0934,4.094,4.0928,4.0924,4.0921,4.0901,4.0898,4.0906,4.0898,4.0888,4.0905,4.0886,4.0888,4.091,4.0915,4.0919,4.0921,4.0862,0,0,0,0,0,4.098,4.0981,4.0966,4.0976,4.0973,4.0957,4.0956,4.0945,4.0938,4.0934,4.0924,4.0916,4.0915,4.0914,4.0911,4.0923,4.0921,4.0931,4.0935,4.0939,4.0941,4.0949,4.0954,4.09,4.09,4.09,0,0,4.0994,4.0985,4.0987,4.0981,4.0975,4.0978,4.0955,4.0958,4.096,4.0934,4.0939,4.0931,4.0922,4.0931,4.0934,4.0925,4.0955,4.0941,4.0944,4.0944,4.0952,4.0957,4.0962,4.0902,4.0901,4.0901,0,0,4.1023,4.1015,4.1024,4.1019,4.1011,4.1,4.1003,4.099,4.0984,4.0989,4.0971,4.0973,4.097,4.0965,4.0962,4.0991,4.0977,4.0991,4.1013,4.1022,4.1026,4.103,4.1043,4.1047,4.0993,4.0993,4.0993,0,4.1041,4.1045,4.1029,4.1034,4.1033,4.1012,4.1021,4.1016,4.1007,4.1007,4.0996,4.0995,4.0986,4.0995,4.1003,4.1,4.1003,4.0993,4.1027,4.103,4.1034,4.1046,4.105,4.0995,4.0994,4.0994,4.0994,0,4.107,4.1073,4.1081,4.1075,4.1074,4.1081,4.1066,4.1067,4.1057,4.1048,4.1054,4.1044,4.104,4.1041,4.103,4.105,4.1044,4.1031,4.1012,4.1041,4.1052,4.1056,4.0997,4.0997,4.0996,4.0996,0,0,4.1114,4.1102,4.1105,4.1103,4.1094,4.1096,4.1102,4.11,4.1103,4.1097,4.1103,4.1102,4.1091,4.1087,4.1075,4.1082,4.111,4.1068,4.1068,4.1078,4.1134,4.1146,4.1152,4.11,4.1101,4.1102,4.1136,0,4.1142,4.1154,4.1141,4.1155,4.1159,4.114,4.1146,4.1141,4.1133,4.1135,4.1126,4.1127,4.111,4.1109,4.1115,4.1105,4.1121,4.1102,4.1107,4.1107,4.1112,4.1157,4.1169,4.1201,4.114,4.114,4.1141,0,4.1176,4.1175,4.1191,4.1183,4.1184,4.119,4.1189,4.119,4.1185,4.1179,4.1177,4.1163,4.1169,4.1151,4.116,4.1148,4.1149,4.1145,4.1146,4.1147,4.1127,4.1161,4.1211,4.1217,4.1147,4.1146,4.1146,0,4.121,4.1212,4.1222,4.1221,4.1212,4.1217,4.1213,4.1207,4.1207,4.1206,4.1206,4.1205,4.1205,4.1204,4.1191,4.1178,4.1203,4.1183,4.1199,4.12,4.1206,4.1206,4.1259,4.1204,4.1204,4.1203,4.1203,0,4.1243,4.1254,4.1238,4.1244,4.1256,4.1242,4.1254,4.1248,4.1243,4.1249,4.1231,4.1236,4.1218,4.1221,4.1211,4.1222,4.1221,4.1217,4.1215,4.122,4.1221,4.1221,4.1219,4.1205,4.1204,4.1204,4.1204,0,4.1283,4.1272,4.1283,4.1275,4.1273,4.1282,4.1275,4.1281,4.1273,4.128,4.1281,4.1268,4.1271,4.1258,4.1258,4.1252,4.1269,4.1261,4.1272,4.127,4.1288,4.1288,4.1345,4.1353,4.129,4.1291,4.1291,0,4.1306,4.1314,4.1307,4.1311,4.1309,4.1313,4.1315,4.1301,4.1303,4.1299,4.1306,4.1309,4.131,4.1317,4.1307,4.1308,4.1302,4.1322,4.1302,4.1308,4.1305,4.1306,4.1308,4.1327,4.1327,4.1328,4.1329,0,4.1348,4.1344,4.1347,4.135,4.1352,4.1353,4.1352,4.1356,4.1341,4.1344,4.1349,4.135,4.1353,4.1356,4.1356,4.1351,4.1338,4.1335,4.1339,4.1346,4.1352,4.1352,4.1285,4.1334,4.1333,4.1333,4.1333,4.1332,4.1382,4.139,4.1387,4.1392,4.1391,4.1392,4.1398,4.1392,4.1396,4.1398,4.1389,4.1396,4.1393,4.1391,4.1389,4.1394,4.1385,4.139,4.1392,4.1394,4.1399,4.135,4.1394,4.1393,4.1393,4.1393,4.1393,0,4.1426,4.1424,4.1429,4.143,4.1435,4.1423,4.1423,4.1427,4.1434,4.1432,4.1435,4.1442,4.1446,4.1438,4.144,4.1447,4.1441,4.1448,4.1448,4.1448,4.1406,4.1403,4.1453,4.1453,4.1453,4.1453,4.1453,4.1453,4.1449,4.1463,4.1458,4.1472,4.1469,4.1478,4.1479,4.148,4.1479,4.1488,4.1492,4.1487,4.1483,4.1486,4.149,4.1487,4.149,4.15,4.1496,4.1456,4.1451,4.1445,4.1443,4.15,4.15,4.1538,4.1538,4.1539]}]]